WetterOnline ( https://www.wetteronline.de )

Wetter aktuell Alt Zauche-Wußwerk

Aktuelles Wetter: Cottbus (70m)

6-stündlich | Neueste Meldungen
Ortszeit Temperatur Wetter
Do, 30.05. 8:00 17.3° C bedeckt
Do, 30.05. 2:00 16.8° C bedeckt
Mi, 29.05. 20:00 21.4° C wolkig
Mi, 29.05. 14:00 23.2° C fast wolkenlos
Mi, 29.05. 8:00 15.4° C wolkig
Mi, 29.05. 2:00 9.8° C Nebel
Di, 28.05. 20:00 15.6° C wolkig
Di, 28.05. 14:00 14.8° C leichter Regen
Ortszeit Temperatur Wetter
Do, 30.05. 8:30 18.9° C bedeckt
Do, 30.05. 8:20 18.9° C bedeckt
Do, 30.05. 8:10 18.3° C bedeckt
Do, 30.05. 8:00 17.3° C bedeckt
Do, 30.05. 7:50 17.3° C bedeckt
Do, 30.05. 7:40 17.0° C bedeckt
Do, 30.05. 7:30 16.9° C bewölkt
Do, 30.05. 7:00 15.3° C leicht bewölkt
Do, 30.05. 6:30 14.5° C wolkig
Do, 30.05. 6:00 14.2° C wolkig
Do, 30.05. 5:30 13.9° C wolkenlos
Ortszeit Relative Feuchte Sichtweite
Do, 30.05. 8:00 73% 55 km
Do, 30.05. 2:00 76% 65 km
Mi, 29.05. 20:00 48% 65 km
Mi, 29.05. 14:00 35% >70 km
Mi, 29.05. 8:00 74% 55 km
Mi, 29.05. 2:00 97% 11 km
Di, 28.05. 20:00 80% 50 km
Di, 28.05. 14:00 85% 25 km
Ortszeit Relative Feuchte Sichtweite
Do, 30.05. 8:30 65% 40 km
Do, 30.05. 8:20 65% -
Do, 30.05. 8:10 66% -
Do, 30.05. 8:00 73% 55 km
Do, 30.05. 7:50 73% -
Do, 30.05. 7:40 73% -
Do, 30.05. 7:30 76% 60 km
Do, 30.05. 7:00 86% 40 km
Do, 30.05. 6:30 90% 45 km
Do, 30.05. 6:00 87% 55 km
Do, 30.05. 5:30 89% 55 km
Ortszeit Niederschlagsmenge Niederschlagsart
Do, 30.05. 8:00 0.0 l/m2 in 12 Std. -
Do, 30.05. 2:00 0.0 l/m2 in 6 Std. -
Mi, 29.05. 20:00 0.0 l/m2 in 12 Std. -
Mi, 29.05. 14:00 0.0 l/m2 in 6 Std. -
Mi, 29.05. 8:00 0.0 l/m2 in 12 Std. -
Mi, 29.05. 2:00 0.0 l/m2 in 6 Std. -
Di, 28.05. 20:00 5 l/m2 in 12 Std. Regen
Di, 28.05. 14:00 5 l/m2 in 6 Std. Regen
Ortszeit Niederschlagsmenge Niederschlagsart
Do, 30.05. 8:30 0.0 l/m2 in 30 Min -
Do, 30.05. 8:20 keine Meldung -
Do, 30.05. 8:10 keine Meldung -
Do, 30.05. 8:00 0.0 l/m2 in 1 Std. -
Do, 30.05. 7:50 keine Meldung -
Do, 30.05. 7:40 keine Meldung -
Do, 30.05. 7:30 0.0 l/m2 in 30 Min -
Do, 30.05. 7:00 0.0 l/m2 in 1 Std. -
Do, 30.05. 6:30 0.0 l/m2 in 30 Min -
Do, 30.05. 6:00 0.0 l/m2 in 1 Std. -
Do, 30.05. 5:30 0.0 l/m2 in 30 Min -
Ortszeit Stärke Spitze Richtung
km/h Bft. km/h Grad Sektor
Do, 30.05. 8:00 6 1 11 100° O
Do, 30.05. 2:00 2 1 20 350° N
Mi, 29.05. 20:00 7 2 30 220° SW
Mi, 29.05. 14:00 13 3 28 180° S
Mi, 29.05. 8:00 7 2 14 190° S
Mi, 29.05. 2:00 4 1 11 200° S
Di, 28.05. 20:00 4 1 18 220° SW
Di, 28.05. 14:00 7 2 36 280° W
Ortszeit Stärke Spitze Richtung
km/h Bft. km/h Grad Sektor
Do, 30.05. 8:30 4 1 11 140° SO
Do, 30.05. 8:20 4 1 - 140° SO
Do, 30.05. 8:10 4 1 - 140° SO
Do, 30.05. 8:00 6 1 11 100° O
Do, 30.05. 7:50 6 1 - 100° O
Do, 30.05. 7:40 7 2 - 110° O
Do, 30.05. 7:30 2 1 6 120° SO
Do, 30.05. 7:00 4 1 4 60° NO
Do, 30.05. 6:30 0 0 4 - -
Do, 30.05. 6:00 2 1 9 350° N
Do, 30.05. 5:30 4 1 11 190° S
Ortszeit Untergrenze Bedeckung Gattung
total tief tief mittel hoch
Do, 30.05. 8:00 2100 m 8/8 8/8 - - -
Do, 30.05. 2:00 1500 m 8/8 8/8 - - -
Mi, 29.05. 20:00 1800 m 6/8 4/8 - - -
Mi, 29.05. 14:00 9000 m 2/8 0/8 - - -
Mi, 29.05. 8:00 6900 m 8/8 6/8 - - -
Mi, 29.05. 2:00 - 0/8 0/8 - - -
Di, 28.05. 20:00 1800 m 8/8 1/8 - - -
Di, 28.05. 14:00 1800 m 8/8 8/8 - - -
Ortszeit Bedeckungsgrad in Achtel und Wolkenuntergrenze
Do, 30.05. 8:30 8(3000m)
Do, 30.05. 8:20 8(3000m)
Do, 30.05. 8:10 8
Do, 30.05. 8:00 1(2100m) 8(2700m)
Do, 30.05. 7:50 1(2100m) 8(2700m)
Do, 30.05. 7:40 8
Do, 30.05. 7:30 3(1800m) 7(2100m) 8(3000m)
Do, 30.05. 7:00 1(1500m) 6(3000m)
Do, 30.05. 6:30 5(1500m) 6(4200m)
Do, 30.05. 6:00 5(4200m)
Do, 30.05. 5:30 keine Wolken
Ortszeit Luftdruck NN (hPa) Tendenz (hPa in 3 Std.)
Do, 30.05. 8:00 1007 - 0,7
Do, 30.05. 2:00 1009 - 0,7
Mi, 29.05. 20:00 1010 - 1,1
Mi, 29.05. 14:00 1013 - 2,0
Mi, 29.05. 8:00 1016 - 0,7
Mi, 29.05. 2:00 1018 - 0,6
Di, 28.05. 20:00 1018 + 0,4
Di, 28.05. 14:00 1018 + 1,0
Ortszeit Luftdruck NN (hPa) Tendenz (hPa in 3 Std.)
Do, 30.05. 8:30 1007 - 0,6
Do, 30.05. 8:20 1007 keine Meldung
Do, 30.05. 8:10 1007 keine Meldung
Do, 30.05. 8:00 1007 - 0,7
Do, 30.05. 7:50 1007 keine Meldung
Do, 30.05. 7:40 1007 keine Meldung
Do, 30.05. 7:30 1007 - 0,8
Do, 30.05. 7:00 1007 - 1,1
Do, 30.05. 6:30 1007 - 1,2
Do, 30.05. 6:00 1008 - 1,3
Do, 30.05. 5:30 1008 - 1,6
Ortszeit Schneehöhe (cm)
Do, 30.05. 8:00 0
Do, 30.05. 2:00 0
Mi, 29.05. 20:00 0
Mi, 29.05. 14:00 0
Mi, 29.05. 8:00 0
Mi, 29.05. 2:00 0
Di, 28.05. 20:00 0
Di, 28.05. 14:00 0
Ortszeit Schneehöhe (cm)
Do, 30.05. 8:30 0
Do, 30.05. 8:20 0
Do, 30.05. 8:10 -
Do, 30.05. 8:00 0
Do, 30.05. 7:50 0
Do, 30.05. 7:40 -
Do, 30.05. 7:30 0
Do, 30.05. 7:00 0
Do, 30.05. 6:30 0
Do, 30.05. 6:00 0
Do, 30.05. 5:30 0
Link zu dieser Seite / Seite empfehlen

Das Wetter in ...